Weather History for KOVS - September, 2013

Change the Weather History Date:

Sunday, September 15, 2013

  Actual Average (KPDC) Record (KPDC)
Temperature  
Mean Temperature 60 °F -  
Max Temperature 68 °F 73 °F 92 °F (1955)
Min Temperature 55 °F 50 °F 35 °F (2011)
Degree Days  
Heating Degree Days 6    
Growing Degree Days 10 (Base 50)    
Moisture  
Dew Point 55 °F    
Average Humidity 87    
Maximum Humidity 94    
Minimum Humidity 70    
Precipitation  
Precipitation 0.58 in - - ()
Sea Level Pressure  
Sea Level Pressure 30.03 in    
Wind  
Wind Speed 2 mph (NE)    
Max Wind Speed 8 mph    
Max Gust Speed -    
Visibility 9 miles    
Events Rain    
Averages and records for this station are not official NWS values.
T = Trace of Precipitation, MM = Missing Value Source: NWS Daily Summary

Daily Weather History Graph

Daily Weather History Graph

Search for Another Location

Airport or City:

Trip Planner

Search our weather history database for the weather conditions in past years. The results will help you decide how hot, cold, wet, or windy it might be!

Date:

Astronomy

Sep. 15, 2013 Rise Set
Actual Time 6:42 AM CDT 7:12 PM CDT
Civil Twilight 6:13 AM CDT 7:40 PM CDT
Nautical Twilight 5:40 AM CDT 8:14 PM CDT
Astronomical Twilight 5:05 AM CDT 8:49 PM CDT
Moon 4:44 PM CDT (9/15) 2:15 AM CDT (9/15)
Length of Visible Light 13h 26m
Length of Day
12h 29m
Waxing Gibbous, 82% of the Moon is Illuminated
Sep 15
Waxing Gibbous
Sep 19
Full
Sep 26
Last Quarter
Oct 4
New
Oct 11
First Quarter

Hourly Weather History & Observations

Time (CDT) Temp. Dew Point Humidity Pressure Visibility Wind Dir Wind Speed Gust Speed Precip Events Conditions
12:53 AM 57.9 °F 55.0 °F 90% 30.02 in 10.0 mi Calm Calm - 0.03 in Rain Light Rain
1:53 AM 57.0 °F 55.0 °F 93% 30.03 in 9.0 mi ESE 3.5 mph - 0.06 in Rain Rain
2:53 AM 57.0 °F 54.0 °F 89% 30.01 in 5.0 mi Calm Calm - 0.10 in Rain Heavy Rain
3:53 AM 57.0 °F 54.0 °F 89% 29.99 in 5.0 mi Calm Calm - 0.14 in Rain Rain
4:53 AM 55.9 °F 53.1 °F 90% 29.53 in 10.0 mi SSE 5.8 mph - 0.05 in Rain Light Rain
5:53 AM 57.0 °F 53.1 °F 87% 29.53 in 5.0 mi Calm Calm - 0.05 in Rain Heavy Rain
6:53 AM 57.0 °F 53.1 °F 87% 29.94 in 7.0 mi North - - 0.04 in Rain Light Rain
7:41 AM 57.0 °F 53.1 °F 87% 29.96 in 10.0 mi Calm Calm - 0.00 in   Overcast
7:53 AM 57.0 °F 52.0 °F 83% 29.96 in 10.0 mi Calm Calm - 0.00 in   Overcast
8:03 AM 57.0 °F 53.1 °F 87% 29.95 in 10.0 mi Calm Calm - N/A   Overcast
8:30 AM 57.0 °F 53.1 °F 87% 29.95 in 10.0 mi Calm Calm - N/A   Overcast
8:39 AM 57.0 °F 53.1 °F 87% 29.95 in 10.0 mi Calm Calm - N/A   Overcast
8:50 AM 57.2 °F 53.6 °F 88% 29.96 in 10.0 mi ENE 3.5 mph - N/A   Overcast
8:53 AM 57.0 °F 53.1 °F 87% 29.97 in 10.0 mi Calm Calm - N/A   Overcast
9:53 AM 57.9 °F 55.0 °F 90% 29.99 in 10.0 mi East 3.5 mph - N/A   Overcast
10:26 AM 57.0 °F 55.0 °F 93% 29.99 in 1.8 mi NNE 3.5 mph - 0.04 in Rain Heavy Rain
10:31 AM 57.0 °F 55.0 °F 93% 29.98 in 3.0 mi Variable 3.5 mph - 0.05 in Rain Light Rain
10:48 AM 57.2 °F 55.4 °F 94% 29.99 in 3.0 mi Variable 3.5 mph - 0.07 in Rain Rain
10:53 AM 57.0 °F 55.0 °F 93% 29.99 in 2.5 mi NNE 4.6 mph - 0.09 in Rain Heavy Rain
11:01 AM 57.0 °F 55.0 °F 93% 29.99 in 3.0 mi NNE 4.6 mph - 0.01 in Rain Rain
11:20 AM 57.9 °F 55.9 °F 93% 30.00 in 7.0 mi ENE 3.5 mph - 0.02 in Rain Light Rain
11:39 AM 57.9 °F 55.9 °F 93% 30.00 in 10.0 mi Calm Calm - 0.02 in   Overcast
11:48 AM 59.0 °F 55.4 °F 88% 30.00 in 10.0 mi NE 5.8 mph - 0.02 in   Overcast
11:53 AM 59.0 °F 55.9 °F 90% 30.01 in 10.0 mi Variable 3.5 mph - 0.02 in   Overcast
12:13 PM 60.1 °F 55.9 °F 86% 30.01 in 10.0 mi NE 3.5 mph - N/A   Overcast
12:46 PM 61.0 °F 55.9 °F 83% 30.02 in 10.0 mi NNE 4.6 mph - N/A   Overcast
12:53 PM 61.0 °F 55.9 °F 83% 30.02 in 10.0 mi North 4.6 mph - N/A   Overcast
1:53 PM 63.0 °F 57.0 °F 81% 30.04 in 10.0 mi NNE 4.6 mph - N/A   Overcast
2:48 PM 62.6 °F 55.4 °F 77% 30.06 in 10.0 mi NNE 6.9 mph - N/A   Overcast
2:53 PM 63.0 °F 55.9 °F 78% 30.06 in 10.0 mi Variable 5.8 mph - N/A   Overcast
3:27 PM 63.0 °F 55.0 °F 75% 30.07 in 10.0 mi Variable 4.6 mph - N/A   Overcast
3:53 PM 64.0 °F 55.0 °F 73% 30.08 in 10.0 mi North 8.1 mph - N/A   Overcast
4:53 PM 64.9 °F 55.0 °F 70% 30.10 in 10.0 mi NNE 6.9 mph - N/A   Mostly Cloudy
5:53 PM 64.9 °F 55.0 °F 70% 30.12 in 10.0 mi NNE 4.6 mph - N/A   Mostly Cloudy
6:53 PM 63.0 °F 55.0 °F 75% 30.15 in 10.0 mi Calm Calm - N/A   Scattered Clouds
7:53 PM 57.0 °F 55.0 °F 93% 30.17 in 10.0 mi Calm Calm - N/A   Scattered Clouds
8:53 PM 57.0 °F 55.0 °F 93% 30.20 in 10.0 mi Calm Calm - N/A   Overcast
9:53 PM 55.9 °F 54.0 °F 93% 30.22 in 10.0 mi Calm Calm - N/A   Overcast
10:51 PM 57.2 °F 55.4 °F 94% 30.23 in 10.0 mi ENE 3.5 mph - N/A   Overcast
10:53 PM 57.9 °F 55.0 °F 90% 30.24 in 10.0 mi ENE 3.5 mph - N/A   Overcast
11:03 PM 59.0 °F 55.0 °F 87% 30.23 in 10.0 mi ENE 3.5 mph - N/A   Overcast
11:27 PM 59.0 °F 55.0 °F 87% 30.24 in 10.0 mi ENE 3.5 mph - N/A   Overcast
11:53 PM 59.0 °F 55.9 °F 90% 30.25 in 10.0 mi Calm Calm - N/A   Overcast